Overview Statistics Trail Chart Weather Telemetry Raw packets
 

This is the latest recevied weather packets stored in our database for station/object KD2SIG. If no packets are shown the sender has not sent any weather packets the latest 10 day(s).

<< 110 111 112 113 114 >>
Time Temp. Humidity Pressure Rain* Wind** Luminosity Snow
1787763407 25° C 70% 1019 hPa 0 mm - 588 W/m² -
1787763106 24.44° C 70% 1019.1 hPa 0 mm - 704 W/m² -
1787762806 23.89° C 71% 1019 hPa 0 mm - 689 W/m² -
1787762501 23.89° C 71% 1019.2 hPa 0 mm - 695 W/m² -
1787762198 23.33° C 73% 1019.3 hPa 0 mm - 683 W/m² -
1787761893 22.78° C 73% 1019.3 hPa 0 mm - 621 W/m² -
1787761588 23.89° C 72% 1019.4 hPa 0 mm - 140 W/m² -
1787761284 24.44° C 72% 1019.6 hPa 0 mm - 734 W/m² -
1787760982 23.89° C 73% 1019.3 hPa 0 mm - 662 W/m² -
1787760680 23.89° C 74% 1019.3 hPa 0 mm - 642 W/m² -
1787760376 22.78° C 75% 1019.3 hPa 0 mm - 691 W/m² -
1787760070 23.33° C 74% 1019.6 hPa 0 mm - 147 W/m² -
1787759768 23.33° C 74% 1019.4 hPa 0 mm - 218 W/m² -
1787759464 23.33° C 76% 1019.5 hPa 0 mm - 629 W/m² -
1787759159 22.78° C 76% 1019.4 hPa 0 mm - 661 W/m² -
1787758857 22.22° C 78% 1019.4 hPa 0 mm - 643 W/m² -
1787758554 22.22° C 78% 1019.7 hPa 0 mm - 452 W/m² -
1787758252 22.22° C 79% 1019.3 hPa 0 mm - 210 W/m² -
1787757947 22.22° C 80% 1019.7 hPa 0 mm - 239 W/m² -
1787757644 22.22° C 79% 1019.8 hPa 0 mm - 155 W/m² -
1787757343 22.78° C 79% 1019.5 hPa 0 mm - 780 W/m² -
1787757043 22.22° C 79% 1019.7 hPa 0 mm - 764 W/m² -
1787756737 22.78° C 78% 1019.6 hPa 0 mm - 724 W/m² -
1787756432 22.78° C 78% 1019.9 hPa 0 mm - 718 W/m² -
1787756126 22.22° C 81% 1019.8 hPa 0 mm - 684 W/m² -

* Rain latest hour (hover to see other rain measurements)
** Current wind speed in m/s (hover to see current wind gust speed)